Regional Weather Roundup
Issued by NWS

Home | Current Version | Previous Version | Text Only | Print | Product List | Glossary Off
Versions: 1 2 3 4 5 6 7 8 9 10 11 12 13 14 15 16 17 18 19 20 21 22 23 24 25 26 27 28 29 30 31 32 33 34 35 36 37 38 39 40 41 42 43 44 45 46 47 48 49 50

000
ASUS45 KSLC 200010
RWRUT

UTAH REGIONAL WEATHER ROUNDUP
NATIONAL WEATHER SERVICE SALT LAKE CITY UT
600 PM MDT SUN OCT 19 2014

UTZ001>011-023>025-200100-

NORTHERN UTAH

CITY           SKY/WX    TMP DP  RH WIND       PRES   REMARKS
BRIGHAM CITY   CLEAR     71  31  23 SW3       30.03S
HILL AFB       CLEAR     69  38  32 NW6       30.05S
LOGAN          CLEAR     69  39  33 CALM      30.03F
OGDEN          CLEAR     69  38  32 N6        30.03S
PROVO AIRPORT  PTCLDY    70  36  28 VRB6      30.03S
SALT LAKE CITY CLEAR     69  41  36 W8        30.01F
VERNAL         CLEAR     67  35  30 CALM      30.08S
WENDOVER       CLEAR     66  34  30 SE3       30.03F
HEBER CITY     CLEAR     68  34  28 SW8       30.05S
WEST JORDAN    CLEAR     66  45  45 N6        30.05S

$$

UTZ012>022-026-027-200100-

SOUTHERN/CENTRAL UTAH

CITY           SKY/WX    TMP DP  RH WIND       PRES   REMARKS
BLANDING       PTCLDY    69  36  30 SE3       30.16R
BRYCE CANYON   PTCLDY    62  32  32 SE8       30.17S
CEDAR CITY     PTCLDY    72  34  24 CALM      30.03S
DELTA          CLEAR     73  30  20 N3        30.02S
HANKSVILLE       N/A     73  32  21 NE5       30.03S
MILFORD        CLEAR     73  35  25 N13       30.01S
MOAB/CYNLANDS  CLEAR     74  34  23 N5        30.00S
PRICE          CLEAR     70  29  21 CALM      30.09F
ST GEORGE      CLEAR     84  37  18 NW3       29.88S

$$

REGIONAL REPORTS     COLORADO/ARIZONA

CITY           SKY/WX    TMP DP  RH WIND       PRES   REMARKS
CRAIG, CO      CLEAR     66  35  31 CALM      30.12S
GRAND JUNCTION CLEAR     70  37  29 W7        30.02S
RIFLE          PTCLDY    71  34  25 W3        30.05F
MONTROSE       CLEAR     70  36  28 N5        30.09S
CORTEZ         CLOUDY    57  51  80 E10       30.14R
PAGE, AZ       NOT AVBL
GRAND CANYON   PTCLDY    57  35  43 VRB3      30.12R
KINGMAN        MOSUNNY   78  40  25 S8        29.90S
FLAGSTAFF      CLOUDY    62  35  36 NE8       30.13S

$$

REGIONAL REPORTS    NEVADA/IDAHO/WYOMING

CITY           SKY/WX    TMP DP  RH WIND       PRES   REMARKS
LAS VEGAS, NV  MOSUNNY   86  38  18 S8        29.80F
ELY            CLOUDY    67  32  27 S8        30.07S
ELKO           CLEAR     75  29  18 S6        29.98F
POCATELLO, ID  CLEAR     70  33  25 N7        30.03S
BURLEY         CLEAR     71  35  26 NE9       29.97S
EVANSTON, WY   CLEAR     65  27  23 N5        30.16S
ROCK SPRINGS   CLEAR     63  29  27 N3        30.15S
KEMMERER       CLEAR     61  27  27 E3        30.18S

$$


USA.gov is the U.S. government's official web portal to all federal, state and local government web resources and services.